User: anonymous   Login
Location: Unspecified
(0.0000°N, 0.0000°E)
Time: 13:00:28
(UTC+00:00)
Language:

AO-85 - Orbit

View from above orbital plane
View from above orbital plane
View from above satellite
View from above satellite

Ground track
Ground track

The orbit data is extracted from the following two-line orbital elements,

1 40967U 15058D   19191.34138286 -.00000029  00000 0  15746-4 0  7414
2 40967  64.7774  92.6315 0197826 195.9242 163.5588 14.75959187110930
Epoch (UTC): 10 July 2019 08:11:35
Eccentricity: 0.0197826
inclination: 64.7774°
perigee height: 503 km
apogee height: 781 km
right ascension of ascending node: 92.6315°
argument of perigee: 195.9242°
revolutions per day: 14.75959187
mean anomaly at epoch: 163.5588°
orbit number at epoch: 11093

The dashed part of the orbit path shows where the satellite is in the earth's shadow,  

DLR